User: anonymous   Login
Location: Bismarck
(46.7731°N, 100.8200°W)
Time: 04:25:37
(UTC-05:00)
Language:

Cosmos 1125 Rocket - Orbit

View from above orbital plane
View from above orbital plane
View from above satellite
View from above satellite

Ground track
Ground track

The orbit data is extracted from the following two-line orbital elements,

1 11511U 79078B   15144.49628951  .00000115  00000-0  47992-4 0  9991
2 11511 074.0374 262.2751 0016314 327.7734 032.2421 14.36622069870232
Epoch (UTC): 24 May 2015 11:54:39
Eccentricity: 0.0016314
inclination: 74.0374°
perigee height: 758 km
apogee height: 781 km
right ascension of ascending node: 262.2751°
argument of perigee: 327.7734°
revolutions per day: 14.36622069
mean anomaly at epoch: 32.2421°
orbit number at epoch: 87023

The dashed part of the orbit path shows where the satellite is in the earth's shadow,  

DLR